User: anonymous   Login
Location: Poughquag
(41.6090°N, 73.6820°W)
Time: 03:19:30
(UTC-04:00)
Language:

JY1SAT - Orbit

View from above orbital plane
View from above orbital plane
View from above satellite
View from above satellite

Ground track
Ground track

The orbit is defined by the following mean orbital elements,

1 43803U          26139.11698419 +.00000000 +00000-0 +37434-3 0 00005
2 43803  97.4142 201.8701 0005752  31.4913 328.6673 15.32643998    01
Epoch (UTC): 19 May 2026 02:48:27
Eccentricity: 0.0005752
inclination: 97.4142°
perigee height: 464 km
apogee height: 472 km
right ascension of ascending node: 201.8701°
argument of perigee: 31.4913°
revolutions per day: 15.32643998
mean anomaly at epoch: 328.6673°

The dashed part of the orbit path shows where the satellite is in the earth's shadow,  

DLR